When you browse on this site, cookies collect data to enhance your experience and personalize the content and advertising you see.
Visit our Privacy Policy to learn more. By continuing to use the site, you agree to this use of cookies and data.
  • In United Kingdom
  • List of Countries
  • For 7 days
  • Water Temperature
  • Weather Map
  • Weather Widgets
  • user-avatar
    Login

    Hourly Weather Pomaz

    Today, 29 January, Wednesday

    Time Temperature Precipitation Wind Pressure Humidity
    00:00 +1°C° 0.1 mm 3 mps 737 mmHg 90%
    01:00 +1°C° 0.1 mm 3 mps 738 mmHg 89%
    02:00 +1°C° 0 mm 3 mps 738 mmHg 87%
    03:00 -1°C° 0 mm 4 mps 738 mmHg 84%
    04:00 -1°C° 0 mm 4 mps 738 mmHg 81%
    05:00 0°C° 0 mm 3 mps 738 mmHg 83%
    06:00 -1°C° 0 mm 3 mps 739 mmHg 84%
    07:00 -1°C° 0 mm 3 mps 739 mmHg 85%
    08:00 0°C° 0 mm 3 mps 739 mmHg 85%
    09:00 +1°C° 0 mm 3 mps 740 mmHg 85%
    10:00 +2°C° 0 mm 3 mps 740 mmHg 85%
    11:00 +2°C° 0.2 mm 3 mps 740 mmHg 85%
    12:00 +1°C° 0.2 mm 4 mps 740 mmHg 86%
    13:00 +3°C° 0.2 mm 4 mps 740 mmHg 87%
    14:00 +1°C° 0.3 mm 4 mps 740 mmHg 87%
    15:00 +2°C° 0.3 mm 3 mps 740 mmHg 87%
    16:00 +2°C° 0.3 mm 3 mps 740 mmHg 87%
    17:00 +1°C° 0 mm 3 mps 741 mmHg 86%
    18:00 +2°C° 0 mm 2 mps 741 mmHg 85%
    19:00 +1°C° 0 mm 2 mps 742 mmHg 85%
    20:00 +1°C° 0 mm 2 mps 742 mmHg 83%
    21:00 +1°C° 0 mm 2 mps 742 mmHg 82%
    22:00 0°C° 0 mm 3 mps 742 mmHg 81%
    23:00 0°C° 0 mm 3 mps 743 mmHg 82%

    Tomorrow, 30 January, Thursday

    Time Temperature Precipitation Wind Pressure Humidity
    00:00 -1°C° 0 mm 4 mps 744 mmHg 83%
    01:00 -1°C° 0 mm 5 mps 744 mmHg 84%
    02:00 -1°C° 0 mm 5 mps 744 mmHg 84%
    03:00 -1°C° 0 mm 4 mps 745 mmHg 84%
    04:00 -1°C° 0 mm 4 mps 745 mmHg 84%
    05:00 -2°C° 0 mm 4 mps 745 mmHg 84%
    06:00 -1°C° 0 mm 3 mps 745 mmHg 84%
    07:00 -1°C° 0 mm 3 mps 746 mmHg 84%
    08:00 0°C° 0 mm 3 mps 746 mmHg 81%
    09:00 -1°C° 0 mm 4 mps 746 mmHg 78%
    10:00 0°C° 0 mm 4 mps 746 mmHg 74%
    11:00 +1°C° 0.2 mm 4 mps 746 mmHg 78%
    12:00 +1°C° 0.2 mm 4 mps 746 mmHg 81%
    13:00 +2°C° 0.2 mm 3 mps 746 mmHg 85%
    14:00 +2°C° 0 mm 3 mps 745 mmHg 81%
    15:00 +3°C° 0 mm 3 mps 745 mmHg 76%
    16:00 +3°C° 0 mm 3 mps 744 mmHg 72%
    17:00 +2°C° 0 mm 3 mps 744 mmHg 73%
    18:00 +2°C° 0 mm 3 mps 744 mmHg 75%
    19:00 +2°C° 0 mm 3 mps 744 mmHg 76%
    20:00 +2°C° 0 mm 2 mps 744 mmHg 78%
    21:00 +2°C° 0 mm 2 mps 744 mmHg 81%
    22:00 +2°C° 0 mm 2 mps 743 mmHg 83%
    23:00 +2°C° 0 mm 2 mps 743 mmHg 85%

    Day after tomorrow, 31 January, Friday

    Time Temperature Precipitation Wind Pressure Humidity
    00:00 +2°C° 0 mm 1 mps 743 mmHg 86%
    01:00 +2°C° 0 mm 1 mps 742 mmHg 88%
    02:00 +3°C° 0 mm 1 mps 742 mmHg 88%
    03:00 +3°C° 0 mm 1 mps 741 mmHg 88%
    04:00 +3°C° 0 mm 1 mps 741 mmHg 88%
    05:00 +3°C° 0 mm 1 mps 741 mmHg 88%
    06:00 +4°C° 0 mm 1 mps 740 mmHg 88%
    07:00 +3°C° 0 mm 2 mps 740 mmHg 88%
    08:00 +3°C° 0 mm 3 mps 740 mmHg 84%
    09:00 +4°C° 0 mm 4 mps 740 mmHg 80%
    10:00 +3°C° 0 mm 5 mps 740 mmHg 76%
    11:00 +6°C° 0 mm 5 mps 740 mmHg 76%
    12:00 +8°C° 0 mm 6 mps 740 mmHg 75%
    13:00 +9°C° 0 mm 7 mps 741 mmHg 74%
    14:00 +9°C° 0.1 mm 6 mps 741 mmHg 77%
    15:00 +8°C° 0.1 mm 5 mps 741 mmHg 80%
    16:00 +8°C° 0.1 mm 4 mps 741 mmHg 83%
    17:00 +8°C° 0 mm 3 mps 742 mmHg 85%
    18:00 +7°C° 0 mm 3 mps 743 mmHg 87%
    19:00 +7°C° 0 mm 2 mps 743 mmHg 89%
    20:00 +6°C° 0 mm 2 mps 744 mmHg 90%
    21:00 +6°C° 0 mm 2 mps 744 mmHg 90%
    22:00 +6°C° 0 mm 2 mps 744 mmHg 90%
    23:00 +6°C° 0 mm 2 mps 744 mmHg 90%

    1 February, Saturday

    Time Temperature Precipitation Wind Pressure Humidity
    00:00 +6°C° 0 mm 2 mps 745 mmHg 90%
    01:00 +6°C° 0 mm 1 mps 745 mmHg 90%
    02:00 +6°C° 0 mm 1 mps 745 mmHg 91%
    03:00 +6°C° 0 mm 1 mps 745 mmHg 91%
    04:00 +6°C° 0 mm 1 mps 745 mmHg 92%
    05:00 +6°C° 0 mm 1 mps 745 mmHg 92%
    06:00 +6°C° 0 mm 1 mps 745 mmHg 92%
    07:00 +6°C° 0 mm 1 mps 745 mmHg 92%
    08:00 +6°C° 0 mm 1 mps 745 mmHg 89%
    09:00 +7°C° 0 mm 1 mps 745 mmHg 85%
    10:00 +8°C° 0 mm 1 mps 745 mmHg 82%
    11:00 +8°C° 0 mm 2 mps 745 mmHg 79%
    12:00 +9°C° 0 mm 3 mps 745 mmHg 77%
    13:00 +10°C° 0 mm 3 mps 744 mmHg 74%
    14:00 +10°C° 0 mm 3 mps 744 mmHg 77%
    15:00 +10°C° 0 mm 2 mps 743 mmHg 80%
    16:00 +9°C° 0 mm 2 mps 743 mmHg 83%
    17:00 +8°C° 0 mm 2 mps 743 mmHg 85%
    18:00 +8°C° 0 mm 2 mps 743 mmHg 87%
    19:00 +8°C° 0 mm 1 mps 742 mmHg 89%
    20:00 +8°C° 0 mm 1 mps 742 mmHg 90%
    21:00 +8°C° 0 mm 1 mps 742 mmHg 91%
    22:00 +8°C° 0 mm 1 mps 741 mmHg 92%
    23:00 +7°C° 0.9 mm 2 mps 742 mmHg 90%

    2 February, Sunday

    Time Temperature Precipitation Wind Pressure Humidity
    00:00 +8°C° 0.9 mm 3 mps 742 mmHg 87%
    01:00 +7°C° 0.9 mm 4 mps 742 mmHg 84%
    02:00 +7°C° 0 mm 5 mps 742 mmHg 78%
    03:00 +5°C° 0 mm 6 mps 743 mmHg 73%
    04:00 +5°C° 0 mm 7 mps 743 mmHg 67%
    05:00 +5°C° 0 mm 7 mps 744 mmHg 68%
    06:00 +4°C° 0 mm 7 mps 745 mmHg 69%
    07:00 +4°C° 0 mm 6 mps 746 mmHg 70%
    08:00 +4°C° 0 mm 7 mps 746 mmHg 68%
    09:00 +5°C° 0 mm 8 mps 747 mmHg 66%
    10:00 +5°C° 0 mm 8 mps 748 mmHg 64%
    11:00 +6°C° 0 mm 8 mps 748 mmHg 62%
    12:00 +6°C° 0 mm 8 mps 748 mmHg 61%
    13:00 +7°C° 0 mm 8 mps 748 mmHg 59%
    14:00 +7°C° 0 mm 6 mps 748 mmHg 61%
    15:00 +7°C° 0 mm 5 mps 748 mmHg 62%
    16:00 +7°C° 0 mm 4 mps 748 mmHg 64%
    17:00 +7°C° 0 mm 3 mps 748 mmHg 65%
    18:00 +7°C° 0 mm 3 mps 748 mmHg 67%
    19:00 +5°C° 0 mm 3 mps 748 mmHg 68%
    20:00 +5°C° 0.1 mm 3 mps 748 mmHg 74%
    21:00 +5°C° 0.1 mm 3 mps 748 mmHg 79%
    22:00 +5°C° 0.1 mm 3 mps 748 mmHg 85%
    23:00 +5°C° 0.1 mm 3 mps 748 mmHg 86%

    3 February, Monday

    Time Temperature Precipitation Wind Pressure Humidity
    00:00 +5°C° 0.1 mm 3 mps 748 mmHg 87%
    01:00 +6°C° 0.1 mm 2 mps 748 mmHg 88%
    02:00 +7°C° 0.1 mm 3 mps 747 mmHg 87%
    03:00 +7°C° 0.1 mm 3 mps 747 mmHg 85%
    04:00 +7°C° 0.1 mm 3 mps 747 mmHg 84%
    05:00 +7°C° 0 mm 3 mps 747 mmHg 84%
    06:00 +7°C° 0 mm 3 mps 747 mmHg 84%
    07:00 +5°C° 0 mm 3 mps 747 mmHg 84%
    08:00 +6°C° 0 mm 4 mps 747 mmHg 82%
    09:00 +7°C° 0 mm 4 mps 747 mmHg 81%
    10:00 +8°C° 0 mm 5 mps 748 mmHg 80%
    11:00 +8°C° 0.2 mm 4 mps 748 mmHg 83%
    12:00 +8°C° 0.2 mm 4 mps 748 mmHg 87%
    13:00 +8°C° 0.2 mm 4 mps 747 mmHg 90%
    14:00 +8°C° 0.1 mm 4 mps 747 mmHg 91%
    15:00 +8°C° 0.1 mm 3 mps 747 mmHg 92%
    16:00 +8°C° 0.1 mm 3 mps 747 mmHg 92%
    17:00 +8°C° 0.1 mm 2 mps 747 mmHg 93%
    18:00 +8°C° 0.1 mm 2 mps 747 mmHg 93%
    19:00 +8°C° 0.1 mm 2 mps 747 mmHg 93%
    20:00 +8°C° 0 mm 2 mps 747 mmHg 93%
    21:00 +7°C° 0 mm 2 mps 747 mmHg 92%
    22:00 +8°C° 0 mm 1 mps 746 mmHg 92%
    23:00 +7°C° 0 mm 2 mps 746 mmHg 90%
    Show more